[[{"header":{"parameterUnit":"m.s-1","parameterCategory":2,"la1":30.2991,"la2":30.254,"lo1":-89.0895,"lo2":-89.0444,"dy":0.0017,"dx":0.0017,"nx":28,"ny":28,"refTime":"2024-07-20T03:00:00:Z","depth":"0","parameterNumber":2,"parameterNumberName":"U-component_of_CURRENTS"},"data":[0,0,0,0,0,0,0,0,0,0,0,0,0,0,0,0,0,0,0,0,0,0,0,0,0,0,0,0,0,0,0,0,0,0,0,0,0,0,0,0,0,0,0,0,0,0,0,0,0,0,0,0,0,0,0,0,0,0,0.2704,0.2705,0,0.2715,0.2714,0.2714,0.2645,0.2643,0.2642,0.264,0.2571,0.2571,0.2571,0,0,0,0,0,0,0,0,0,0,0,0,0,0.2694,0.2693,0.2704,0.2705,0.2705,0.2715,0.2714,0.2714,0.2645,0.2643,0.2641,0.2639,0.2571,0.2571,0.2571,0,0,0,0,0,0,0,0,0,0,0,0,0,0.2697,0.2693,0.2704,0.2675,0.2673,0.2715,0.2714,0.2714,0.2646,0.2643,0.2641,0.2639,0.2572,0.2571,0.2571,0.2615,0,0,0.2569,0.2569,0,0,0,0,0,0,0,0,0.2696,0.2696,0.2679,0.2677,0.2675,0.2679,0.2686,0.2678,0.2646,0.2652,0.264,0.2637,0.2604,0.2601,0.2604,0.2612,0.2609,0.2569,0.2569,0.2568,0.2568,0,0,0,0,0,0,0,0.2696,0.2696,0.2704,0.2679,0.2677,0.2685,0.2682,0.2684,0.2637,0.2651,0.2647,0.2655,0.2602,0.2605,0.2602,0.2608,0.2569,0.2568,0.2568,0.2568,0.2761,0.2766,0,0,0,0,0,0,0.2702,0.2696,0.2704,0.2705,0.2684,0.2687,0.2683,0.2677,0.2638,0.2632,0.2657,0.2652,0.2607,0.2602,0.2599,0.2725,0.2568,0.2568,0.2568,0.2755,0.2762,0.2768,0,0,0,0,0,0,0.2701,0.2702,0.2704,0.2705,0.2706,0.269,0.2684,0.2679,0.2687,0.2645,0.2635,0.2671,0.2605,0.26,0.2654,0.2718,0.2568,0.2567,0.2749,0.2757,0.2765,0.2928,0,0,0,0,0,0,0.2701,0.2701,0.271,0.2705,0.2706,0.2751,0.2686,0.2681,0.2697,0.269,0.2654,0.2645,0.2602,0.2655,0.2653,0.2715,0.2567,0.2742,0.2753,0.2762,0.2916,0.2941,0.2962,0,0,0,0,0,0.27,0.2717,0.271,0.2712,0.2713,0.2754,0.2757,0.2734,0.2701,0.2728,0.2725,0.2646,0.2718,0.266,0.2656,0.2718,0.2737,0.275,0.2762,0.2905,0.2936,0.2962,0,0,0,0,0,0,0.271,0.2712,0.2703,0.2717,0.2747,0.2744,0.2767,0.2754,0.2772,0.2764,0.2711,0.2706,0.2779,0.2745,0.2682,0.2813,0.2717,0.2729,0.2828,0.2856,0.2879,0.2855,0.2566,0,0,0,0,0,0.2721,0.2737,0.2748,0.2767,0.2782,0.2781,0.2796,0.2788,0.28,0.2803,0.279,0.2794,0.283,0.2837,0.2854,0.2922,0.2886,0.2967,0.299,0.3009,0.2996,0.3076,0.3104,0.2808,0.2808,0.2808,0,0,0.273,0.2737,0.2744,0.2773,0.2786,0.2844,0.2783,0.2821,0.2876,0.2796,0.2869,0.2872,0.2871,0.2954,0.2982,0.2927,0.3073,0.3025,0.3041,0.3015,0.3092,0.312,0.3145,0.2816,0.2815,0.2814,0,0,0.2773,0.2766,0.2802,0.2841,0.2882,0.2895,0.2915,0.2938,0.2952,0.3032,0.3003,0.3058,0.3091,0.3117,0.3131,0.3299,0.3198,0.3304,0.3389,0.3471,0.3494,0.3514,0.3479,0.3495,0.331,0.331,0.331,0,0.2784,0.283,0.2825,0.2886,0.2927,0.2928,0.2995,0.3033,0.3077,0.3094,0.3077,0.3168,0.3176,0.3272,0.334,0.3347,0.3331,0.3274,0.3496,0.3516,0.3534,0.3493,0.3508,0.3319,0.3318,0.3317,0.3316,0,0.2863,0.2913,0.2946,0.3021,0.3067,0.3129,0.3179,0.3225,0.3241,0.3262,0.3352,0.3387,0.3419,0.3465,0.3452,0.359,0.3515,0.3517,0.3411,0.3573,0.352,0.3532,0.3333,0.3329,0.3327,0.3324,0,0,0.2843,0.2974,0.2984,0.3046,0.3142,0.3183,0.3284,0.3358,0.3394,0.3467,0.352,0.3637,0.361,0.3629,0.3633,0.3717,0.3843,0.3675,0.3675,0.3611,0.394,0.3643,0.3627,0.3888,0.3892,0.3895,0.3839,0,0.2908,0.3046,0.3087,0.3223,0.3304,0.3339,0.3422,0.3485,0.3524,0.3581,0.3632,0.369,0.3688,0.3703,0.3798,0.3834,0.3889,0.3851,0.3815,0.3812,0.3508,0.3638,0.3415,0.3326,0.385,0.3852,0.3854,0,0.2969,0.3058,0.3198,0.3322,0.335,0.342,0.3506,0.3582,0.3654,0.3675,0.3731,0.3743,0.3859,0.3845,0.397,0.3943,0.395,0.3974,0.3973,0.3639,0.3541,0.3261,0.3328,0.3218,0.3872,0.3871,0.3869,0,0.2972,0.3126,0.3238,0.3292,0.3433,0.3469,0.3524,0.3596,0.3644,0.3719,0.3741,0.3846,0.3889,0.3973,0.399,0.4002,0.4088,0.4108,0.3831,0.3806,0.3574,0.3519,0.35,0.4197,0.4197,0.4198,0.4198,0,0.3035,0.312,0.3242,0.3312,0.3406,0.3478,0.3553,0.3604,0.3669,0.3715,0.3775,0.3825,0.3938,0.3976,0.4006,0.3912,0.4094,0.3835,0.3792,0.3617,0.3571,0.3423,0.3418,0.4195,0.4196,0.4196,0.4197,0,0.3044,0.3134,0.326,0.339,0.3423,0.348,0.3568,0.3615,0.3663,0.3721,0.3746,0.3837,0.3859,0.3882,0.3977,0.3877,0.3705,0.3776,0.3483,0.3404,0.298,0.2991,0.2785,0.2729,0.3455,0.3447,0.3441,0,0.3068,0.3139,0.3291,0.3345,0.3403,0.3486,0.3541,0.3612,0.3644,0.3721,0.3745,0.377,0.3733,0.367,0.3548,0.3432,0.3442,0.3115,0.3104,0.2903,0.2892,0.2845,0.2817,0.2869,0.2859,0.285,0.2844,0,0.3097,0.3142,0.3237,0.3339,0.3408,0.3478,0.354,0.3561,0.362,0.3624,0.3592,0.3558,0.3446,0.3202,0.3005,0.2939,0.29,0.2924,0.287,0.253,0.2336,0.2276,0.2895,0.2768,0.2775,0.2781,0.2785,0.2788,0.3078,0.3122,0.3215,0.3296,0.3368,0.3386,0.3354,0.3387,0.3359,0.3224,0.3364,0.3133,0.2918,0.2595,0.2522,0.2148,0.2328,0.2021,0.2077,0.2066,0.1928,0.2278,0.2003,0.2006,0.2008,0.2011,0.2013,0,0.3009,0.3066,0.3155,0.3194,0.3185,0.3265,0.3276,0.3162,0.3009,0.2915,0.2777,0.2396,0.2098,0.1919,0.1534,0.135,0.1384,0.1291,0.1283,0.1329,0.1763,0.1651,0.11,0.11,0.11,0.11,0.11,0.11,0.2973,0.3001,0.3033,0.2965,0.2977,0.2852,0.2798,0.2651,0.252,0.2129,0.1814,0.1704,0.1514,0.1152,0.0859,0.0828,0.0844,0.0667,0.0823,0.1212,0.1289,0.1363,0.1258,0.0633,0.0633,0.0309,0.0306,0.0304]},{"header":{"parameterUnit":"m.s-1","parameterCategory":2,"la1":30.2991,"la2":30.254,"lo1":-89.0895,"lo2":-89.0444,"dy":0.0017,"dx":0.0017,"nx":28,"ny":28,"refTime":"2024-07-20T03:00:00:Z","depth":"0","parameterNumber":3,"parameterNumberName":"V-component_of_CURRENTS"},"data":[0,0,0,0,0,0,0,0,0,0,0,0,0,0,0,0,0,0,0,0,0,0,0,0,0,0,0,0,0,0,0,0,0,0,0,0,0,0,0,0,0,0,0,0,0,0,0,0,0,0,0,0,0,0,0,0,0,0,0.022,0.022,0,0.0213,0.0213,0.0213,0.0204,0.0204,0.0204,0.0204,0.0168,0.0167,0.0166,0,0,0,0,0,0,0,0,0,0,0,0,0,0.0203,0.0203,0.022,0.022,0.022,0.0213,0.0213,0.0213,0.0204,0.0204,0.0204,0.0204,0.0168,0.0167,0.0166,0,0,0,0,0,0,0,0,0,0,0,0,0,0.0204,0.0203,0.022,0.0215,0.0214,0.0213,0.0213,0.0213,0.0204,0.0204,0.0204,0.0203,0.0169,0.0167,0.0166,0.0162,0,0,0.0162,0.0162,0,0,0,0,0,0,0,0,0.0204,0.0205,0.0216,0.0215,0.0215,0.0209,0.0194,0.0194,0.0204,0.0208,0.0204,0.0203,0.0179,0.0177,0.0176,0.016,0.0159,0.0162,0.0161,0.0161,0.0161,0,0,0,0,0,0,0,0.0204,0.0205,0.0217,0.0216,0.0215,0.0205,0.0205,0.0194,0.0194,0.0207,0.0207,0.0206,0.0179,0.0178,0.0175,0.0158,0.0162,0.0161,0.016,0.016,0.0143,0.0144,0,0,0,0,0,0,0.0207,0.0205,0.0217,0.0217,0.0209,0.0205,0.0206,0.0211,0.0195,0.0192,0.0207,0.0206,0.018,0.0177,0.0174,0.0173,0.0161,0.016,0.0159,0.0143,0.0143,0.0144,0,0,0,0,0,0,0.0207,0.0208,0.0217,0.021,0.0211,0.0206,0.0212,0.0211,0.0209,0.0194,0.0191,0.0206,0.018,0.0176,0.0157,0.0171,0.0159,0.0158,0.0143,0.0143,0.0144,0.0168,0,0,0,0,0,0,0.0206,0.0208,0.021,0.0211,0.0211,0.0217,0.0212,0.0211,0.021,0.0209,0.0193,0.019,0.0179,0.0159,0.0156,0.0169,0.0157,0.0142,0.0143,0.0143,0.0167,0.0169,0.0171,0,0,0,0,0,0.0206,0.021,0.021,0.0211,0.0215,0.0218,0.0217,0.0212,0.021,0.021,0.0193,0.019,0.0161,0.0157,0.0154,0.0168,0.0142,0.0143,0.0143,0.0166,0.0169,0.0171,0,0,0,0,0,0,0.0198,0.0209,0.021,0.0216,0.0217,0.0216,0.0215,0.0213,0.0202,0.0199,0.0184,0.018,0.0173,0.0164,0.016,0.0165,0.0155,0.0155,0.0173,0.0176,0.0178,0.0226,0.0156,0,0,0,0,0,0.0199,0.0209,0.0213,0.0217,0.0219,0.0217,0.0217,0.0216,0.0208,0.0203,0.019,0.0179,0.0174,0.0168,0.016,0.0154,0.0202,0.0164,0.0167,0.0169,0.0205,0.0325,0.0343,0.0146,0.0146,0.0146,0,0,0.0198,0.0205,0.021,0.0217,0.0218,0.0214,0.0217,0.0219,0.0215,0.02,0.0186,0.0184,0.0174,0.0172,0.0169,0.0164,0.0233,0.0169,0.0171,0.0207,0.0328,0.0348,0.0366,0.0147,0.0146,0.0146,0,0,0.0196,0.0207,0.0211,0.0212,0.0215,0.0214,0.0215,0.0214,0.0214,0.02,0.0198,0.0217,0.0179,0.0203,0.0203,0.0216,0.0242,0.0195,0.0244,0.0359,0.0378,0.0395,0.0417,0.0437,0.0196,0.0196,0.0196,0,0.0191,0.0198,0.0211,0.0209,0.021,0.0214,0.0212,0.0211,0.0202,0.0225,0.0195,0.0227,0.0209,0.0258,0.0251,0.0228,0.0265,0.0232,0.0368,0.0386,0.0404,0.0423,0.0444,0.0197,0.0197,0.0197,0.0197,0,0.0192,0.0191,0.0194,0.0195,0.0199,0.0199,0.0202,0.0211,0.0208,0.0225,0.0271,0.0269,0.0307,0.0291,0.0264,0.0372,0.0344,0.0359,0.0369,0.0426,0.044,0.0461,0.0199,0.0198,0.0198,0.0198,0,0,0.0191,0.0194,0.0193,0.02,0.0193,0.0207,0.0206,0.0236,0.0285,0.028,0.0359,0.035,0.0392,0.0398,0.0395,0.0478,0.0589,0.0463,0.0469,0.0498,0.0787,0.0679,0.0691,0.0637,0.0642,0.0646,0.0725,0,0.0184,0.0187,0.0187,0.0192,0.0195,0.0208,0.0224,0.0258,0.029,0.0366,0.0412,0.0473,0.0418,0.0458,0.0533,0.0598,0.0658,0.0563,0.0718,0.0721,0.0633,0.0718,0.07,0.0764,0.0746,0.075,0.0753,0,0.0177,0.0186,0.0187,0.022,0.0228,0.0235,0.0308,0.0325,0.0425,0.0463,0.0549,0.0591,0.0696,0.0654,0.0808,0.075,0.0771,0.0806,0.0811,0.0733,0.0657,0.0717,0.0805,0.0786,0.0786,0.0784,0.0781,0,0.0182,0.0189,0.0199,0.0201,0.0233,0.0258,0.0286,0.0366,0.0431,0.0553,0.0638,0.0748,0.0837,0.0914,0.0937,0.0902,0.1104,0.1071,0.0981,0.0969,0.1,0.0982,0.1113,0.12,0.1199,0.1199,0.1199,0,0.0176,0.0188,0.021,0.0217,0.0279,0.0286,0.038,0.0428,0.0541,0.0665,0.0707,0.0837,0.0922,0.102,0.1017,0.1059,0.1169,0.1022,0.1018,0.0992,0.0974,0.0993,0.0982,0.1202,0.1201,0.1201,0.12,0,0.0189,0.0182,0.0216,0.0257,0.0279,0.0333,0.0435,0.0526,0.0602,0.0772,0.0823,0.0959,0.1082,0.1109,0.1242,0.1165,0.1197,0.1183,0.1086,0.1069,0.0928,0.0917,0.1058,0.1066,0.1117,0.1115,0.1114,0,0.0208,0.0218,0.0266,0.0318,0.0342,0.0419,0.0494,0.056,0.0663,0.0853,0.0957,0.11,0.1214,0.1299,0.124,0.1212,0.1195,0.1112,0.1047,0.0949,0.0938,0.093,0.0928,0.1072,0.1071,0.1069,0.1068,0,0.0283,0.0289,0.0333,0.0408,0.0481,0.0568,0.0668,0.0744,0.0853,0.0982,0.1163,0.1259,0.1319,0.1309,0.1212,0.117,0.1095,0.1076,0.1075,0.1003,0.092,0.0913,0.0914,0.1056,0.1057,0.1058,0.1059,0.1059,0.0377,0.0423,0.0469,0.0538,0.0621,0.0713,0.0786,0.09,0.1038,0.1208,0.1281,0.1391,0.1341,0.1229,0.1169,0.0989,0.1027,0.0917,0.0933,0.0949,0.0915,0.0818,0.0885,0.0885,0.0886,0.0886,0.0886,0,0.0503,0.053,0.0609,0.0685,0.0769,0.078,0.0912,0.0984,0.1133,0.1261,0.138,0.1361,0.1291,0.118,0.0966,0.0868,0.087,0.0827,0.0871,0.0892,0.0911,0.0863,0.0809,0.0809,0.0809,0.0809,0.0809,0.081,0.0575,0.0654,0.0657,0.079,0.0845,0.0947,0.1007,0.111,0.12,0.1299,0.1306,0.1317,0.1239,0.1023,0.0865,0.0826,0.0842,0.0795,0.0821,0.0857,0.0868,0.0878,0.0833,0.0775,0.0775,0.0814,0.0814,0.0815]}],[{"header":{"parameterUnit":"m.s-1","parameterCategory":2,"la1":30.2991,"la2":30.254,"lo1":-89.0895,"lo2":-89.0444,"dy":0.0017,"dx":0.0017,"nx":28,"ny":28,"refTime":"2024-07-20T03:00:00:Z","depth":"2","parameterNumber":2,"parameterNumberName":"U-component_of_CURRENTS"},"data":[0,0,0,0,0,0,0,0,0,0,0,0,0,0,0,0,0,0,0,0,0,0,0,0,0,0,0,0,0,0,0,0,0,0,0,0,0,0,0,0,0,0,0,0,0,0,0,0,0,0,0,0,0,0,0,0,0,0,0.1727,0.1727,0,0.1767,0.1768,0.1768,0.178,0.178,0.178,0.1779,0.1746,0.1746,0.1745,0,0,0,0,0,0,0,0,0,0,0,0,0,0.1764,0.1763,0.1727,0.1727,0.1727,0.1767,0.1768,0.1769,0.1781,0.178,0.178,0.1779,0.1746,0.1746,0.1745,0,0,0,0,0,0,0,0,0,0,0,0,0,0.1772,0.1762,0.1727,0.1736,0.1737,0.1767,0.1768,0.1769,0.1781,0.178,0.1779,0.1779,0.1747,0.1746,0.1745,0.1754,0,0,0.1743,0.1743,0,0,0,0,0,0,0,0,0.1772,0.1771,0.1734,0.1736,0.1737,0.1766,0.1769,0.1759,0.1781,0.1767,0.1779,0.1778,0.1745,0.1744,0.1758,0.1752,0.1751,0.1743,0.1743,0.1742,0.1742,0,0,0,0,0,0,0,0.1771,0.177,0.1745,0.1735,0.1736,0.1774,0.1774,0.1768,0.1759,0.1768,0.1768,0.1769,0.1745,0.1759,0.1757,0.175,0.1743,0.1742,0.1742,0.1742,0.1814,0.1816,0,0,0,0,0,0,0.1756,0.1769,0.1744,0.1746,0.175,0.1773,0.1773,0.1759,0.1761,0.1761,0.177,0.177,0.176,0.1758,0.1756,0.1814,0.1742,0.1742,0.1741,0.1811,0.1814,0.1817,0,0,0,0,0,0,0.1757,0.1753,0.1742,0.1758,0.1759,0.1772,0.1757,0.176,0.1777,0.1763,0.1761,0.1783,0.176,0.1757,0.1745,0.181,0.1741,0.1741,0.1809,0.1812,0.1815,0.1899,0,0,0,0,0,0,0.1757,0.1752,0.1758,0.1756,0.1757,0.1726,0.1758,0.1761,0.1777,0.1777,0.1773,0.177,0.1759,0.1746,0.1744,0.1808,0.174,0.1806,0.181,0.1814,0.1893,0.1905,0.1915,0,0,0,0,0,0.1758,0.1764,0.1758,0.1756,0.1756,0.1724,0.1727,0.1739,0.1778,0.1759,0.1777,0.177,0.1774,0.1745,0.1743,0.1809,0.1803,0.1809,0.1814,0.1888,0.1902,0.1914,0,0,0,0,0,0,0.1785,0.1766,0.1758,0.1758,0.1725,0.1724,0.1741,0.1746,0.1754,0.1779,0.177,0.1766,0.1795,0.1781,0.175,0.1846,0.18,0.1805,0.1858,0.1871,0.1882,0.1921,0.1739,0,0,0,0,0,0.179,0.1785,0.1755,0.1748,0.1745,0.1747,0.1752,0.175,0.175,0.1756,0.1766,0.1793,0.1818,0.1821,0.1831,0.1858,0.1876,0.191,0.1921,0.193,0.1963,0.2024,0.2043,0.1834,0.1834,0.1834,0,0,0.1787,0.1788,0.1778,0.1753,0.1754,0.1749,0.1749,0.175,0.1769,0.1751,0.1804,0.182,0.1832,0.1876,0.1891,0.1868,0.2,0.1937,0.1944,0.1973,0.2031,0.2052,0.207,0.1838,0.1837,0.1836,0,0,0.1794,0.1791,0.1792,0.1772,0.1765,0.1765,0.1762,0.1768,0.1795,0.1818,0.1846,0.1899,0.1911,0.1957,0.1977,0.2053,0.2053,0.2061,0.2147,0.2206,0.2224,0.224,0.2289,0.2309,0.2068,0.2068,0.2068,0,0.1811,0.1788,0.1782,0.1785,0.1783,0.1773,0.1772,0.1797,0.1803,0.1855,0.1839,0.1974,0.1968,0.2075,0.2105,0.2083,0.2103,0.2092,0.222,0.2237,0.2252,0.2299,0.2319,0.2073,0.2072,0.2072,0.2071,0,0.1787,0.1792,0.1796,0.1796,0.1797,0.1782,0.1804,0.1837,0.1886,0.1931,0.2047,0.2073,0.2157,0.2178,0.2158,0.2288,0.2264,0.2223,0.2186,0.2278,0.2321,0.2342,0.208,0.2078,0.2076,0.2075,0,0,0.1785,0.1778,0.1785,0.1807,0.1799,0.1811,0.1859,0.1908,0.1999,0.2052,0.2184,0.2258,0.2314,0.2343,0.236,0.2419,0.2531,0.237,0.237,0.2418,0.266,0.2397,0.2394,0.2503,0.2507,0.251,0.2648,0,0.177,0.1779,0.1778,0.1811,0.1825,0.1847,0.1904,0.1973,0.2045,0.2172,0.2276,0.2397,0.2365,0.2435,0.249,0.2523,0.2588,0.2498,0.2567,0.257,0.2323,0.2409,0.2202,0.2285,0.2667,0.267,0.2673,0,0.176,0.177,0.179,0.1861,0.1875,0.1908,0.2031,0.2075,0.2233,0.2306,0.2447,0.2525,0.2667,0.2613,0.2743,0.2681,0.269,0.2706,0.271,0.2454,0.2343,0.2256,0.2307,0.2706,0.2703,0.2701,0.2699,0,0.1793,0.1805,0.1834,0.1839,0.1902,0.1965,0.2009,0.2141,0.2223,0.2416,0.2504,0.2676,0.2761,0.2831,0.2807,0.2811,0.2901,0.2908,0.2698,0.268,0.2512,0.247,0.3014,0.3014,0.3014,0.3013,0.3013,0,0.18,0.1833,0.1863,0.1892,0.1975,0.2017,0.2147,0.2221,0.236,0.2473,0.2587,0.2679,0.2813,0.2852,0.2865,0.2792,0.2939,0.274,0.2702,0.2529,0.2488,0.2853,0.2832,0.3019,0.3017,0.3016,0.3016,0,0.1864,0.1848,0.1917,0.1983,0.2006,0.2091,0.2195,0.2285,0.2394,0.2538,0.2609,0.2723,0.2751,0.2796,0.2883,0.2814,0.2811,0.2738,0.2502,0.243,0.2574,0.2557,0.2636,0.2628,0.2622,0.2616,0.2611,0,0.1878,0.1935,0.2009,0.2031,0.2067,0.216,0.2217,0.2318,0.2391,0.2528,0.2589,0.2659,0.2637,0.2606,0.2533,0.2503,0.2612,0.2277,0.2246,0.2583,0.2539,0.2532,0.2524,0.2098,0.209,0.2083,0.2077,0,0.1951,0.2006,0.2038,0.2069,0.2124,0.2188,0.2261,0.2296,0.2402,0.2469,0.2474,0.2463,0.2412,0.2229,0.2119,0.2084,0.227,0.2126,0.2582,0.2158,0.2066,0.2025,0.2038,0.2015,0.2021,0.2025,0.2029,0.2031,0.199,0.2023,0.2038,0.2066,0.2114,0.2116,0.2112,0.2154,0.2168,0.2149,0.224,0.2104,0.2089,0.1778,0.1682,0.1624,0.1829,0.179,0.1818,0.1852,0.1697,0.159,0.1424,0.1427,0.1429,0.1431,0.1433,0,0.1953,0.198,0.2007,0.1977,0.1975,0.2051,0.2057,0.1969,0.1874,0.1893,0.1832,0.156,0.1377,0.1373,0.1189,0.1154,0.1223,0.1106,0.1224,0.1284,0.1338,0.1163,0.0747,0.0745,0.0743,0.0741,0,0,0.1912,0.1868,0.1851,0.1774,0.1812,0.1735,0.1707,0.1587,0.1523,0.1339,0.1262,0.1269,0.1308,0.1008,0.0957,0.0834,0.1062,0.078,0.1329,0.1528,0.158,0.172,0.1513,0,0,0,0,0]},{"header":{"parameterUnit":"m.s-1","parameterCategory":2,"la1":30.2991,"la2":30.254,"lo1":-89.0895,"lo2":-89.0444,"dy":0.0017,"dx":0.0017,"nx":28,"ny":28,"refTime":"2024-07-20T03:00:00:Z","depth":"2","parameterNumber":3,"parameterNumberName":"V-component_of_CURRENTS"},"data":[0,0,0,0,0,0,0,0,0,0,0,0,0,0,0,0,0,0,0,0,0,0,0,0,0,0,0,0,0,0,0,0,0,0,0,0,0,0,0,0,0,0,0,0,0,0,0,0,0,0,0,0,0,0,0,0,0,0,-0.0043,-0.0043,0,-0.0055,-0.0055,-0.0055,-0.0048,-0.0048,-0.0047,-0.0047,-0.0048,-0.0048,-0.0048,0,0,0,0,0,0,0,0,0,0,0,0,0,-0.0048,-0.0048,-0.0043,-0.0043,-0.0043,-0.0055,-0.0055,-0.0055,-0.0048,-0.0048,-0.0047,-0.0047,-0.0047,-0.0048,-0.0048,0,0,0,0,0,0,0,0,0,0,0,0,0,-0.0052,-0.0048,-0.0043,-0.0041,-0.004,-0.0055,-0.0055,-0.0055,-0.0048,-0.0048,-0.0047,-0.0047,-0.0047,-0.0048,-0.0048,-0.0064,0,0,-0.005,-0.005,0,0,0,0,0,0,0,0,-0.0052,-0.0052,-0.0041,-0.0041,-0.0041,-0.0049,-0.0057,-0.0057,-0.0049,-0.0046,-0.0047,-0.0046,-0.0047,-0.0048,-0.0052,-0.0064,-0.0064,-0.005,-0.0051,-0.0051,-0.0051,0,0,0,0,0,0,0,-0.0052,-0.0052,-0.0048,-0.0041,-0.0041,-0.005,-0.005,-0.0057,-0.005,-0.0046,-0.0046,-0.0046,-0.0047,-0.0052,-0.0052,-0.0064,-0.005,-0.0051,-0.0051,-0.0051,-0.0085,-0.0085,0,0,0,0,0,0,-0.0048,-0.0051,-0.0048,-0.0049,-0.0044,-0.0051,-0.005,-0.0047,-0.005,-0.005,-0.0047,-0.0046,-0.0051,-0.0051,-0.0052,-0.0052,-0.0051,-0.0051,-0.0052,-0.0084,-0.0085,-0.0085,0,0,0,0,0,0,-0.0048,-0.0047,-0.0047,-0.005,-0.005,-0.0051,-0.0048,-0.0048,-0.0047,-0.005,-0.005,-0.0045,-0.0051,-0.0051,-0.0059,-0.0052,-0.0052,-0.0052,-0.0083,-0.0084,-0.0085,-0.0063,0,0,0,0,0,0,-0.0048,-0.0047,-0.0047,-0.0049,-0.005,-0.0045,-0.0048,-0.0048,-0.0049,-0.0047,-0.0049,-0.0049,-0.005,-0.0058,-0.006,-0.0053,-0.0053,-0.0083,-0.0084,-0.0085,-0.0063,-0.0063,-0.0063,0,0,0,0,0,-0.0048,-0.0046,-0.0047,-0.0047,-0.0049,-0.0045,-0.0046,-0.0046,-0.0049,-0.0044,-0.0054,-0.0049,-0.0065,-0.0059,-0.0061,-0.0054,-0.0082,-0.0084,-0.0085,-0.0063,-0.0063,-0.0063,0,0,0,0,0,0,-0.0049,-0.0046,-0.0046,-0.0044,-0.0041,-0.0043,-0.0045,-0.0045,-0.0051,-0.0053,-0.0056,-0.0057,-0.006,-0.0067,-0.006,-0.007,-0.0073,-0.0075,-0.0056,-0.0056,-0.0056,0.0013,-0.0053,0,0,0,0,0,-0.0051,-0.0047,-0.0044,-0.0043,-0.0042,-0.0045,-0.0046,-0.0043,-0.0047,-0.0049,-0.006,-0.0069,-0.0068,-0.007,-0.0076,-0.0083,-0.0047,-0.0082,-0.0082,-0.0081,-0.0028,0.0038,0.0051,-0.0089,-0.0089,-0.0089,0,0,-0.0053,-0.0049,-0.0048,-0.0043,-0.0044,-0.0036,-0.0043,-0.0041,-0.0033,-0.0049,-0.0056,-0.0069,-0.0071,-0.0075,-0.0078,-0.0078,-0.0037,-0.0083,-0.0082,-0.0028,0.0038,0.0053,0.0066,-0.009,-0.009,-0.009,0,0,-0.005,-0.005,-0.0046,-0.0039,-0.0035,-0.0033,-0.003,-0.0038,-0.0038,-0.0052,-0.0054,-0.0044,-0.0084,-0.0054,-0.005,-0.0051,-0.0039,-0.0087,-0.0025,0.0036,0.005,0.0063,0.0075,0.0089,-0.0086,-0.0086,-0.0086,0,-0.0054,-0.0038,-0.0044,-0.0033,-0.0018,-0.0029,-0.001,-0.0017,-0.0029,-0.0005,-0.0053,-0.0035,-0.0054,0.0008,-0.0009,-0.0041,-0.003,-0.0025,0.0042,0.0055,0.0069,0.0078,0.0094,-0.0085,-0.0085,-0.0086,-0.0086,0,-0.0038,-0.0027,-0.0023,-0.0007,0.0003,0.0018,0.0018,0.0022,0.0005,0.0015,0.0049,0.0026,0.0057,0.0027,0.0001,0.0081,0.0047,0.0036,0.0053,0.0085,0.0091,0.0107,-0.0084,-0.0084,-0.0085,-0.0085,0,0,-0.0037,-0.0015,-0.0011,0.0016,0.0027,0.0047,0.006,0.0101,0.0153,0.0115,0.0193,0.0165,0.0172,0.0181,0.0157,0.0196,0.0251,0.0145,0.0147,0.0178,0.0349,0.0272,0.0281,0.0242,0.0246,0.0249,0.0298,0,-0.0017,0.0018,0.0026,0.0072,0.0096,0.0111,0.0141,0.0175,0.0191,0.0252,0.0264,0.0307,0.0224,0.0242,0.0269,0.0269,0.0301,0.0237,0.0298,0.03,0.0248,0.0301,0.0292,0.0333,0.0313,0.0316,0.0318,0,-0.0004,0.0029,0.007,0.0145,0.0161,0.0185,0.0278,0.0302,0.0383,0.0398,0.0454,0.0464,0.0521,0.0439,0.0486,0.0439,0.0407,0.0394,0.0396,0.0349,0.0256,0.0307,0.0362,0.0345,0.0342,0.034,0.0339,0,0.0007,0.0067,0.011,0.0129,0.0196,0.0235,0.0276,0.0352,0.0418,0.0507,0.0577,0.0628,0.0664,0.0659,0.058,0.0548,0.0621,0.0579,0.0491,0.0482,0.0508,0.0496,0.0651,0.0651,0.0651,0.065,0.065,0,0.0027,0.007,0.0123,0.0146,0.0248,0.0268,0.0382,0.0429,0.0533,0.0644,0.0658,0.0753,0.0722,0.074,0.0661,0.061,0.0682,0.0542,0.0517,0.0502,0.0489,0.0535,0.052,0.0652,0.0652,0.0651,0.0651,0,0.0028,0.0052,0.0122,0.0205,0.0245,0.0313,0.0447,0.0539,0.0608,0.0757,0.0795,0.0871,0.0873,0.0816,0.0804,0.0714,0.0675,0.0634,0.0583,0.0552,0.0475,0.0461,0.0589,0.0587,0.0585,0.0584,0.0583,0,0.004,0.0059,0.0164,0.0233,0.0275,0.0381,0.047,0.0562,0.0657,0.0825,0.0905,0.0964,0.0992,0.0922,0.0795,0.0678,0.0655,0.0584,0.0544,0.052,0.0482,0.047,0.0459,0.0564,0.0562,0.0562,0.0561,0,0.0083,0.01,0.017,0.0291,0.0391,0.0513,0.0628,0.0723,0.0836,0.0941,0.1066,0.1106,0.104,0.0923,0.0743,0.0658,0.06,0.0561,0.0616,0.0558,0.0495,0.0457,0.0448,0.0553,0.0554,0.0554,0.0555,0.0555,0.0136,0.0195,0.0274,0.0384,0.0502,0.0629,0.0721,0.0832,0.0969,0.109,0.113,0.1129,0.1033,0.0777,0.066,0.0527,0.055,0.0489,0.0493,0.0499,0.0465,0.0401,0.0433,0.0433,0.0433,0.0433,0.0433,0,0.023,0.0272,0.0373,0.0509,0.0617,0.0659,0.0824,0.0883,0.1005,0.1073,0.1117,0.0974,0.0866,0.0736,0.0543,0.0441,0.0448,0.0391,0.0432,0.0441,0.0448,0.0413,0.0367,0.0366,0.0366,0.0365,0,0,0.0289,0.0387,0.0409,0.0575,0.0657,0.0785,0.0864,0.0929,0.0978,0.1006,0.0973,0.0964,0.0851,0.0684,0.0569,0.0466,0.0469,0.0435,0.0499,0.0571,0.0579,0.0516,0.0471,0,0,0,0,0]}],[{"header":{"parameterUnit":"m.s-1","parameterCategory":2,"la1":30.2991,"la2":30.254,"lo1":-89.0895,"lo2":-89.0444,"dy":0.0017,"dx":0.0017,"nx":28,"ny":28,"refTime":"2024-07-20T03:00:00:Z","depth":"4","parameterNumber":2,"parameterNumberName":"U-component_of_CURRENTS"},"data":[0,0,0,0,0,0,0,0,0,0,0,0,0,0,0,0,0,0,0,0,0,0,0,0,0,0,0,0,0,0,0,0,0,0,0,0,0,0,0,0,0,0,0,0,0,0,0,0,0,0,0,0,0,0,0,0,0,0,0.0735,0.0735,0,0.0722,0.0721,0.0721,0.0746,0.0747,0.0748,0.0749,0.0776,0.0776,0.0776,0,0,0,0,0,0,0,0,0,0,0,0,0,0.0765,0.0764,0.0735,0.0735,0.0735,0.0722,0.0721,0.0721,0.0746,0.0747,0.0749,0.075,0.0776,0.0776,0.0776,0,0,0,0,0,0,0,0,0,0,0,0,0,0.0749,0.0764,0.0735,0.0749,0.075,0.0722,0.0721,0.0721,0.0745,0.0747,0.0749,0.075,0.0777,0.0776,0.0776,0.0738,0,0,0.0774,0.0774,0,0,0,0,0,0,0,0,0.075,0.0747,0.0746,0.0748,0.0749,0.074,0.0742,0.073,0.0745,0.0743,0.0749,0.0751,0.0769,0.0769,0.0757,0.0739,0.074,0.0774,0.0774,0.0773,0.0773,0,0,0,0,0,0,0,0.0751,0.0748,0.0726,0.0746,0.0748,0.075,0.0749,0.0739,0.0745,0.0744,0.0746,0.075,0.077,0.0758,0.0758,0.0741,0.0774,0.0773,0.0773,0.0773,0.0737,0.0736,0,0,0,0,0,0,0.0758,0.0749,0.0727,0.0726,0.0758,0.0749,0.0748,0.0739,0.0744,0.0747,0.0748,0.0751,0.0758,0.0759,0.076,0.0759,0.0773,0.0773,0.0773,0.0737,0.0737,0.0736,0,0,0,0,0,0,0.0758,0.0756,0.0727,0.0741,0.0738,0.0747,0.0736,0.0737,0.0751,0.0748,0.0752,0.0764,0.0759,0.076,0.0757,0.0759,0.0773,0.0772,0.0738,0.0737,0.0736,0.073,0,0,0,0,0,0,0.0759,0.0755,0.076,0.0741,0.0738,0.071,0.0735,0.0736,0.0751,0.0755,0.0762,0.0765,0.0761,0.0757,0.0756,0.0758,0.0772,0.0739,0.0738,0.0737,0.0731,0.0729,0.0727,0,0,0,0,0,0.076,0.0753,0.076,0.0758,0.074,0.071,0.0707,0.0718,0.075,0.074,0.0751,0.0766,0.0749,0.0756,0.0755,0.0757,0.074,0.0738,0.0737,0.0732,0.0729,0.0727,0,0,0,0,0,0,0.0768,0.0755,0.0762,0.0752,0.0736,0.0716,0.0717,0.0728,0.0728,0.0743,0.0752,0.0753,0.0756,0.075,0.0758,0.0742,0.0749,0.0747,0.0746,0.0743,0.0741,0.0788,0.0771,0,0,0,0,0,0.0771,0.076,0.0747,0.0736,0.0735,0.0732,0.0729,0.0731,0.0726,0.073,0.0737,0.0743,0.0741,0.074,0.0735,0.0719,0.0769,0.072,0.0718,0.0717,0.0753,0.085,0.0862,0.0731,0.0731,0.0731,0,0,0.077,0.0762,0.0757,0.0738,0.0731,0.0703,0.0734,0.0724,0.0708,0.0731,0.0724,0.074,0.0737,0.0723,0.0723,0.0723,0.0765,0.0715,0.0714,0.0751,0.085,0.0864,0.0876,0.073,0.073,0.073,0,0,0.0742,0.0757,0.0733,0.0716,0.0706,0.0698,0.0702,0.0692,0.0702,0.0676,0.071,0.0737,0.0701,0.0724,0.0723,0.0708,0.0758,0.0697,0.0721,0.0813,0.0827,0.0839,0.0866,0.0881,0.069,0.069,0.069,0,0.0747,0.0709,0.0721,0.0687,0.0679,0.0697,0.0667,0.0662,0.0653,0.0679,0.0668,0.0708,0.0703,0.074,0.073,0.0709,0.0757,0.0729,0.0817,0.083,0.0843,0.0868,0.0885,0.0689,0.0689,0.0689,0.0689,0,0.0681,0.0663,0.0649,0.0614,0.0607,0.0582,0.0583,0.0598,0.0616,0.0621,0.0671,0.0681,0.0726,0.0711,0.0708,0.0798,0.0797,0.0811,0.0833,0.0857,0.0879,0.0897,0.0689,0.0689,0.0689,0.0689,0,0,0.0672,0.0614,0.0614,0.0595,0.0572,0.056,0.0558,0.0571,0.0617,0.0611,0.0669,0.0675,0.0745,0.0755,0.0786,0.0852,0.0948,0.0874,0.0879,0.0917,0.1128,0.0981,0.0986,0.0997,0.1002,0.1005,0.1088,0,0.0623,0.054,0.0541,0.0493,0.0456,0.0496,0.0503,0.0529,0.0567,0.0624,0.0679,0.0735,0.074,0.0795,0.0864,0.0953,0.1006,0.0923,0.1086,0.1089,0.0973,0.1006,0.1018,0.1102,0.1106,0.1109,0.1111,0,0.0562,0.0517,0.0445,0.0448,0.045,0.0445,0.0519,0.0529,0.0619,0.0666,0.0758,0.0807,0.092,0.0912,0.1091,0.1049,0.1097,0.1139,0.1144,0.1038,0.0979,0.1085,0.1144,0.1142,0.1139,0.1137,0.1135,0,0.0521,0.0472,0.0418,0.0401,0.0394,0.0431,0.0468,0.0553,0.0613,0.0731,0.0803,0.092,0.1004,0.1115,0.119,0.1173,0.136,0.1342,0.1242,0.1229,0.1342,0.1329,0.1466,0.1466,0.1465,0.1465,0.1465,0,0.0452,0.0418,0.0406,0.0368,0.0399,0.0414,0.0493,0.0569,0.0681,0.0759,0.0855,0.094,0.1073,0.1171,0.1232,0.1288,0.1402,0.1267,0.1262,0.1323,0.1307,0.1351,0.1337,0.1468,0.1468,0.1467,0.1466,0,0.0391,0.036,0.0321,0.0335,0.0366,0.0397,0.0519,0.058,0.0704,0.082,0.0869,0.0997,0.1119,0.1209,0.1359,0.1327,0.1399,0.1379,0.1409,0.1401,0.1187,0.1171,0.1289,0.1285,0.1282,0.1279,0.1276,0,0.0338,0.0289,0.0316,0.0336,0.0351,0.0412,0.0472,0.0592,0.066,0.0839,0.0888,0.1023,0.1094,0.1202,0.1278,0.1361,0.1342,0.1345,0.1292,0.1196,0.118,0.1169,0.1158,0.1271,0.127,0.1269,0.1268,0,0.025,0.0266,0.0269,0.0313,0.037,0.0406,0.0497,0.0551,0.0683,0.0801,0.0909,0.0966,0.1063,0.1135,0.1192,0.1247,0.1336,0.131,0.1317,0.1266,0.1176,0.116,0.1154,0.1257,0.1258,0.1259,0.126,0,0.0257,0.0248,0.0271,0.0322,0.0371,0.0386,0.0435,0.0519,0.0605,0.0801,0.0815,0.0958,0.1051,0.1073,0.1137,0.1167,0.1147,0.1108,0.1125,0.1139,0.1046,0.0906,0.0922,0,0,0,0,0,0.0272,0.0251,0.0272,0.0313,0.0348,0.037,0.0447,0.0491,0.0619,0.0683,0.0757,0.0844,0.092,0.0971,0.0975,0.1037,0.1132,0.103,0.1091,0.1191,0.1205,0.1105,0,0,0,0,0,0,0.0287,0.0292,0.0268,0.0284,0.0307,0.0332,0.0373,0.0448,0.0489,0.0626,0.0683,0.0771,0.0866,0.0929,0.0958,0.0972,0.0984,0.1106,0.1103,0.1183,0.1196,0.1207,0.1109,0,0,0,0,0]},{"header":{"parameterUnit":"m.s-1","parameterCategory":2,"la1":30.2991,"la2":30.254,"lo1":-89.0895,"lo2":-89.0444,"dy":0.0017,"dx":0.0017,"nx":28,"ny":28,"refTime":"2024-07-20T03:00:00:Z","depth":"4","parameterNumber":3,"parameterNumberName":"V-component_of_CURRENTS"},"data":[0,0,0,0,0,0,0,0,0,0,0,0,0,0,0,0,0,0,0,0,0,0,0,0,0,0,0,0,0,0,0,0,0,0,0,0,0,0,0,0,0,0,0,0,0,0,0,0,0,0,0,0,0,0,0,0,0,0,0.004,0.004,0,0.0064,0.0064,0.0064,0.0065,0.0064,0.0064,0.0063,0.0088,0.0089,0.009,0,0,0,0,0,0,0,0,0,0,0,0,0,0.0013,0.0014,0.004,0.004,0.004,0.0063,0.0064,0.0064,0.0065,0.0064,0.0064,0.0063,0.0088,0.0089,0.009,0,0,0,0,0,0,0,0,0,0,0,0,0,0.0032,0.0014,0.004,0.0041,0.0042,0.0063,0.0064,0.0065,0.0065,0.0064,0.0063,0.0063,0.0087,0.0089,0.009,0.0115,0,0,0.0095,0.0096,0,0,0,0,0,0,0,0,0.0031,0.0033,0.0041,0.0041,0.0042,0.0059,0.0064,0.0081,0.0065,0.0058,0.0063,0.0062,0.0077,0.008,0.0089,0.0116,0.0117,0.0096,0.0097,0.0097,0.0098,0,0,0,0,0,0,0,0.0029,0.0032,0.0051,0.0041,0.0042,0.0047,0.0049,0.0067,0.0073,0.0059,0.0058,0.0058,0.0078,0.0087,0.0089,0.0118,0.0095,0.0097,0.0098,0.0099,0.0185,0.0187,0,0,0,0,0,0,0.0022,0.0031,0.005,0.0052,0.0032,0.0048,0.005,0.0055,0.0073,0.0074,0.0059,0.0058,0.0085,0.0087,0.009,0.0146,0.0097,0.0099,0.01,0.0184,0.0186,0.0187,0,0,0,0,0,0,0.0022,0.0024,0.0049,0.004,0.0043,0.0049,0.0055,0.0056,0.0063,0.0072,0.0074,0.0063,0.0084,0.0088,0.0119,0.0146,0.01,0.0101,0.0183,0.0185,0.0186,0.0242,0,0,0,0,0,0,0.0021,0.0024,0.0027,0.0039,0.0043,0.007,0.0056,0.0057,0.0063,0.0063,0.0077,0.0079,0.0084,0.0116,0.012,0.0147,0.0102,0.0181,0.0183,0.0186,0.0239,0.0246,0.0252,0,0,0,0,0,0.002,0.0029,0.0027,0.0029,0.0047,0.007,0.0074,0.0076,0.0064,0.0078,0.009,0.0078,0.0134,0.0119,0.0123,0.0152,0.018,0.0183,0.0186,0.0236,0.0244,0.0252,0,0,0,0,0,0,0.0021,0.003,0.0028,0.0039,0.0056,0.007,0.0078,0.0078,0.0097,0.0097,0.0099,0.0103,0.014,0.0138,0.0121,0.0183,0.0154,0.0158,0.0191,0.0199,0.0205,0.018,0.0104,0,0,0,0,0,0.0021,0.0032,0.0042,0.0054,0.0059,0.0068,0.0076,0.0083,0.0099,0.0106,0.0117,0.0132,0.0158,0.017,0.019,0.0225,0.0189,0.0245,0.0252,0.0257,0.024,0.0202,0.0202,0.0197,0.0197,0.0197,0,0,0.0023,0.0032,0.0035,0.0055,0.0064,0.0095,0.0072,0.0092,0.0125,0.0107,0.0152,0.0157,0.0172,0.0216,0.0232,0.0216,0.0247,0.0261,0.0266,0.0245,0.0205,0.0205,0.0205,0.0199,0.0198,0.0198,0,0,0.0044,0.004,0.006,0.008,0.01,0.0111,0.0117,0.0137,0.0151,0.0196,0.0191,0.02,0.0251,0.0255,0.0267,0.0318,0.0283,0.0337,0.0351,0.0316,0.0315,0.0314,0.0292,0.0289,0.034,0.034,0.034,0,0.0046,0.0078,0.007,0.0104,0.0128,0.0121,0.0161,0.018,0.0212,0.0216,0.022,0.0255,0.0266,0.0294,0.0319,0.0331,0.0309,0.0322,0.0322,0.032,0.0318,0.0295,0.029,0.0343,0.0343,0.0343,0.0342,0,0.0091,0.012,0.0135,0.0177,0.0199,0.0234,0.0256,0.0274,0.0285,0.0291,0.0315,0.0325,0.0333,0.0351,0.0357,0.0357,0.0348,0.0334,0.0296,0.0321,0.0297,0.0291,0.0348,0.0347,0.0346,0.0345,0,0,0.0091,0.0155,0.0163,0.0197,0.0245,0.0267,0.0314,0.0341,0.0351,0.0372,0.0373,0.0415,0.0384,0.0393,0.0392,0.0364,0.0346,0.0349,0.0346,0.0318,0.0278,0.0285,0.0279,0.0333,0.0332,0.0331,0.0275,0,0.0134,0.0213,0.0234,0.0309,0.035,0.0361,0.0399,0.0416,0.0427,0.0423,0.0402,0.0417,0.0415,0.0419,0.039,0.0359,0.0329,0.0362,0.0265,0.0262,0.0257,0.0271,0.0327,0.0271,0.0269,0.0268,0.0267,0,0.018,0.0228,0.0314,0.0372,0.0387,0.0426,0.0461,0.05,0.0483,0.0485,0.0466,0.0441,0.0421,0.0404,0.0344,0.0369,0.0324,0.0288,0.0285,0.0259,0.0257,0.0235,0.0255,0.0256,0.0257,0.0258,0.0259,0,0.0198,0.0281,0.0352,0.0382,0.0445,0.0471,0.0498,0.0508,0.0534,0.0516,0.0513,0.0468,0.0453,0.0389,0.0336,0.0338,0.0246,0.0238,0.0195,0.0196,0.0179,0.018,0.0164,0.0164,0.0164,0.0164,0.0165,0,0.0247,0.0302,0.0364,0.0407,0.0462,0.0497,0.0542,0.0555,0.0564,0.0574,0.0545,0.053,0.0446,0.0388,0.0328,0.0254,0.0243,0.0189,0.0176,0.021,0.0215,0.0175,0.0178,0.0162,0.0163,0.0163,0.0164,0,0.0267,0.0322,0.0388,0.0453,0.0481,0.0515,0.058,0.06,0.0621,0.063,0.0628,0.0572,0.0507,0.0427,0.0312,0.0258,0.0178,0.0146,0.0199,0.0191,0.015,0.0156,0.0089,0.0089,0.0089,0.0088,0.0088,0,0.0285,0.0328,0.0409,0.0443,0.0479,0.054,0.0578,0.0624,0.0648,0.0654,0.0645,0.0588,0.0539,0.0394,0.0303,0.0188,0.0166,0.0122,0.012,0.0145,0.014,0.0146,0.0152,0.0088,0.0088,0.0088,0.0088,0,0.0292,0.032,0.037,0.0444,0.0496,0.0559,0.0616,0.064,0.068,0.0697,0.0658,0.0584,0.0496,0.0381,0.0298,0.021,0.0152,0.0119,0.0118,0.0116,0.0143,0.0139,0.0145,0.0087,0.0087,0.0087,0.0087,0,0.0273,0.0294,0.0357,0.043,0.0495,0.0557,0.0594,0.0626,0.0661,0.0676,0.0648,0.0571,0.0517,0.039,0.031,0.0236,0.0207,0.0169,0.0165,0.0165,0.0206,0.0252,0.0211,0,0,0,0,0,0.0249,0.0287,0.0339,0.0413,0.048,0.0531,0.0609,0.064,0.068,0.0658,0.0664,0.0586,0.0461,0.0397,0.0323,0.0295,0.019,0.0203,0.0144,0.0081,0.0082,0.0118,0,0,0,0,0,0,0.0227,0.0277,0.0326,0.0398,0.0448,0.0522,0.0577,0.0607,0.0602,0.0623,0.056,0.0547,0.0429,0.0499,0.0311,0.0288,0.0236,0.0153,0.0151,0.008,0.0082,0.0082,0.0119,0,0,0,0,0]}]]